SPACEMOBILE-001

Last updated on Fri Sep 11 2026 00:02:08 GMT+0000 (Coordinated Universal Time)

1 61047U 24163C 26253.50840734 -.00000797 00000+0 -21195-4 0 9999 2 61047 52.9713 276.8144 0007131 26.8263 333.3099 15.20472422110740
UTC large
Height (km)
Speed (km/s)
/
Latitude / Longitude
Inclination (degrees)
Orbital Period (minutes)
Azimuth
Elevation
Range (km)
Doppler Factor

Next 0 passes for location: London (51.5072 / 0.1276)

No passes found over London.
SPACEMOBILE-001